Location: Knowlton
(51.2333°N, 1.2667°E)
Time: 04:01:47
(UTC+00:00)

NOAA 15 - Visible Passes

Search period start: 06 December 2021 00:00
Search period end: 16 December 2021 00:00
Orbit: 797 x 813 km, 98.7° (Epoch: 05 December)

Date Brightness Start Highest point End Pass type
(mag) Time Alt. Az. Time Alt. Az. Time Alt. Az.
06 Dec 6.8 06:55:28 10° NE 06:59:59 28° E 07:04:29 10° SSE visible
06 Dec 6.1 16:43:41 10° E 16:46:39 15° NE 16:49:38 10° NNE visible
06 Dec 4.4 18:20:19 10° SSE 18:25:35 73° ENE 18:30:52 10° NNW visible
06 Dec 6.9 20:02:06 10° SW 20:05:55 20° W 20:09:45 10° NW visible
07 Dec 7.4 06:30:53 10° NE 06:34:29 18° E 06:38:03 10° SE visible
07 Dec 4.8 17:55:25 10° SE 18:00:28 47° ENE 18:05:30 10° N visible
07 Dec 6.2 19:35:47 10° SSW 19:40:25 31° W 19:45:05 10° NNW visible
08 Dec 7.7 06:07:18 10° ENE 06:08:52 11° E 06:10:25 10° E visible
08 Dec 5.2 17:30:49 10° ESE 17:35:25 32° ENE 17:40:02 10° N visible
08 Dec 5.4 19:09:57 10° S 19:15:02 48° W 19:20:09 10° NNW visible
09 Dec 5.7 17:06:32 10° ESE 17:10:29 22° NE 17:14:25 10° N visible
09 Dec 4.7 18:44:27 10° S 18:49:44 76° WSW 18:55:02 10° NNW visible
09 Dec 7.4 20:28:09 10° WSW 20:30:25 13° W 20:32:42 10° WNW visible
10 Dec 6.8 06:54:25 10° NE 06:58:55 28° E 07:03:22 10° SSE visible
10 Dec 6.1 16:42:42 10° E 16:45:36 15° NE 16:48:31 10° NNE visible
10 Dec 4.4 18:19:17 10° SSE 18:24:31 71° ENE 18:29:47 10° NNW visible
10 Dec 6.9 20:00:59 10° SW 20:04:51 20° W 20:08:43 10° NW visible
11 Dec 7.4 06:29:52 10° NE 06:33:24 18° E 06:36:55 10° SE visible
11 Dec 4.8 17:54:23 10° SE 17:59:24 46° ENE 18:04:26 10° N visible
11 Dec 6.2 19:34:41 10° SSW 19:39:21 31° W 19:44:03 10° NNW visible
12 Dec 7.8 06:06:23 10° ENE 06:07:47 11° E 06:09:10 10° E visible
12 Dec 5.3 17:29:48 10° ESE 17:34:22 31° ENE 17:38:56 10° N visible
12 Dec 5.4 19:08:52 10° S 19:13:58 49° W 19:19:05 10° NNW visible
13 Dec 5.7 17:05:32 10° ESE 17:09:25 21° NE 17:13:19 10° N visible
13 Dec 4.6 18:43:24 10° S 18:48:40 77° WSW 18:53:58 10° NNW visible
13 Dec 7.4 20:26:59 10° WSW 20:29:20 13° W 20:31:43 10° WNW visible
14 Dec 6.9 06:53:23 10° NE 06:57:50 27° E 07:02:16 10° SSE visible
14 Dec 6.1 16:41:44 10° E 16:44:33 15° NE 16:47:24 10° NNE visible
14 Dec 4.4 18:18:13 10° SSE 18:23:27 70° ENE 18:28:42 10° NNW visible
14 Dec 6.9 19:59:52 10° SW 20:03:45 21° W 20:07:40 10° NW visible
15 Dec 7.4 06:28:50 10° NE 06:32:19 18° E 06:35:47 10° SE visible
15 Dec 4.8 17:53:21 10° SE 17:58:21 45° ENE 18:03:21 10° N visible
15 Dec 6.2 19:33:36 10° SSW 19:38:17 32° W 19:42:59 10° NNW visible
